Location: Hepcat Sky Observatory
(29.9800°N, 95.6500°W)
Time: 20:39:39
(UTC-05:00)

Cosmos 2366 rocket - Visible Passes

Search period start: 03 July 2015 00:00
Search period end: 13 July 2015 00:00
Orbit: 956 x 996 km, 82.9° (Epoch: 03 July)

Date Brightness Start Highest point End Pass type
(mag) Time Alt. Az. Time Alt. Az. Time Alt. Az.
03 Jul 7.1 21:27:13 10° W 21:30:00 13° WNW 21:32:20 10° NW visible
06 Jul 6.8 05:47:52 10° NNE 05:52:12 20° ENE 05:56:46 10° ESE visible
06 Jul 7.0 20:57:51 10° WSW 21:01:31 15° WNW 21:04:49 10° NW visible
09 Jul 6.8 05:20:01 10° NE 05:23:44 17° ENE 05:27:46 10° ESE visible
10 Jul 6.0 05:44:14 10° NNE 05:49:49 33° ENE 05:55:25 10° SE visible
12 Jul 6.9 04:52:20 10° NE 04:55:14 14° ENE 04:58:34 10° ESE visible
